Погода в Сынгрянове

Россия / Республика Башкортостан     55°21′53″N   53°54′12″E
темп.,
°C
ветер,
м/с
пор.,
м/с
влажн.,
%
обл.,
%
осадки,
мм/ч
давл.,
гПа
погр.,
м
3 марта, ср
ср323:00−1зюз61297100 1.7 999620
02:00−4зюз4109696 0.4 999297
05:00−3зюз499680 0.5 1000387
08:00−3зюз489498 0.1 999441
11:00−3зюз479499 0.1 1000405
14:00−2зюз469588 0.0 1000436
17:00−2зюз479289 0.1 1000574
20:00−4зюз499599 0.1 1000269
4 марта, чт
чт423:00−5зсз6119699 0.9 1002658
02:00−10зсз5129499 0.5 1001294
05:00−11з4119593 0.6 1003237
08:00−13юз499666 0.0 1003175
11:00−8юз7129483 0.2 1002446
14:00−5юз81393100 0.7 999626
17:00−5юз91591100 0.8 997795
20:00−4ююз101890100 0.9 994824
5 марта, пт
пт523:00−3з9168684 2.2 994700
02:00−5зюз7158652 0.0 996496
05:00−6зюз5139168 0.0 999396
08:00−7зюз4894100 0.0 1000219
11:00−5зюз3595100 0.1 1001300
14:00−3з2394100 1.0 1000387
17:00−5ссз4595100 1.8 1001353
20:00−7сз4894100 0.4 1003331
6 марта, сб
сб623:00−13зсз489799 0.4 1007186
02:00−18з369789 0.0 1011103
05:00−19зюз339953 0.0 101430
08:00−19юз339965 0.0 101532
11:00−14юз359582 0.0 1014183
14:00−9юз3490100 0.0 1013295
17:00−8ююз2287100 0.0 1011318
20:00−14ю229329 0.0 101021
7 марта, вс
вс723:00−16ю129115 0.0 101020
02:00−17юз229155 0.0 100820
05:00−16юз239378 0.0 100822
08:00−15зюз3597100 0.1 1009102
11:00−13з469497 0.1 1010326
14:00−12зсз4690100 0.1 1011538
17:00−12зюз478696 0.1 1011570
20:00−17ююз49933 0.0 1011144